When you browse on this site, cookies collect data to enhance your experience and personalize the content and advertising you see.
Visit our Privacy Policy to learn more. By continuing to use the site, you agree to this use of cookies and data.
  • In Germany
  • List of Countries
  • For 7 days
  • Water Temperature
  • Weather Map
  • Weather Widgets
  • user-avatar
    Login

    Hourly Weather Veselovka

    Today, 24 February, Monday

    Time Temperature Precipitation Wind Pressure Humidity
    00:00 -8°C° 0 mm 5 mps 736 mmHg 81%
    01:00 -8°C° 0 mm 5 mps 736 mmHg 79%
    02:00 -8°C° 0 mm 4 mps 735 mmHg 80%
    03:00 -8°C° 0 mm 4 mps 735 mmHg 81%
    04:00 -9°C° 0 mm 4 mps 734 mmHg 83%
    05:00 -8°C° 0 mm 5 mps 733 mmHg 84%
    06:00 -8°C° 0 mm 5 mps 733 mmHg 84%
    07:00 -8°C° 0 mm 5 mps 732 mmHg 85%
    08:00 -7°C° 0 mm 5 mps 732 mmHg 84%
    09:00 -6°C° 0 mm 6 mps 731 mmHg 84%
    10:00 -6°C° 0 mm 6 mps 731 mmHg 84%
    11:00 -6°C° 0.1 mm 6 mps 730 mmHg 86%
    12:00 -5°C° 0.1 mm 6 mps 730 mmHg 88%
    13:00 -5°C° 0.1 mm 5 mps 729 mmHg 90%
    14:00 -5°C° 0.3 mm 5 mps 729 mmHg 91%
    15:00 -5°C° 0.3 mm 5 mps 729 mmHg 92%
    16:00 -6°C° 0.3 mm 5 mps 728 mmHg 93%
    17:00 -6°C° 0.3 mm 5 mps 728 mmHg 94%
    18:00 -5°C° 0.3 mm 4 mps 728 mmHg 94%
    19:00 -5°C° 0.3 mm 4 mps 728 mmHg 95%
    20:00 -5°C° 0.2 mm 4 mps 728 mmHg 95%
    21:00 -5°C° 0.2 mm 3 mps 728 mmHg 95%
    22:00 -5°C° 0.2 mm 3 mps 728 mmHg 95%
    23:00 -5°C° 0.1 mm 3 mps 728 mmHg 95%

    Tomorrow, 25 February, Tuesday

    Time Temperature Precipitation Wind Pressure Humidity
    00:00 -5°C° 0.1 mm 3 mps 728 mmHg 94%
    01:00 -6°C° 0.1 mm 3 mps 728 mmHg 94%
    02:00 -6°C° 0 mm 2 mps 728 mmHg 94%
    03:00 -7°C° 0 mm 2 mps 728 mmHg 94%
    04:00 -8°C° 0 mm 2 mps 729 mmHg 94%
    05:00 -8°C° 0 mm 2 mps 729 mmHg 93%
    06:00 -8°C° 0 mm 2 mps 729 mmHg 93%
    07:00 -8°C° 0 mm 2 mps 729 mmHg 93%
    08:00 -7°C° 0 mm 3 mps 730 mmHg 90%
    09:00 -6°C° 0 mm 3 mps 730 mmHg 88%
    10:00 -4°C° 0 mm 3 mps 731 mmHg 86%
    11:00 -2°C° 0 mm 3 mps 731 mmHg 85%
    12:00 -2°C° 0 mm 3 mps 731 mmHg 83%
    13:00 -1°C° 0 mm 3 mps 732 mmHg 81%
    14:00 -1°C° 0 mm 3 mps 732 mmHg 83%
    15:00 -2°C° 0 mm 3 mps 732 mmHg 84%
    16:00 -2°C° 0 mm 2 mps 732 mmHg 86%
    17:00 -2°C° 0 mm 3 mps 732 mmHg 88%
    18:00 -4°C° 0 mm 3 mps 732 mmHg 90%
    19:00 -5°C° 0 mm 3 mps 732 mmHg 91%
    20:00 -5°C° 0 mm 3 mps 732 mmHg 92%
    21:00 -5°C° 0 mm 3 mps 731 mmHg 93%
    22:00 -5°C° 0 mm 2 mps 731 mmHg 94%
    23:00 -6°C° 0 mm 3 mps 731 mmHg 95%

    Day after tomorrow, 26 February, Wednesday

    Time Temperature Precipitation Wind Pressure Humidity
    00:00 -6°C° 0 mm 3 mps 730 mmHg 96%
    01:00 -6°C° 0 mm 3 mps 730 mmHg 96%
    02:00 -6°C° 0 mm 3 mps 729 mmHg 96%
    03:00 -6°C° 0 mm 3 mps 729 mmHg 96%
    04:00 -6°C° 0 mm 3 mps 729 mmHg 95%
    05:00 -6°C° 0.1 mm 3 mps 728 mmHg 95%
    06:00 -6°C° 0.1 mm 3 mps 728 mmHg 96%
    07:00 -6°C° 0.1 mm 3 mps 727 mmHg 96%
    08:00 -6°C° 0.2 mm 3 mps 727 mmHg 95%
    09:00 -6°C° 0.2 mm 3 mps 726 mmHg 94%
    10:00 -6°C° 0.2 mm 3 mps 725 mmHg 94%
    11:00 -6°C° 0.4 mm 3 mps 725 mmHg 94%
    12:00 -5°C° 0.4 mm 3 mps 724 mmHg 95%
    13:00 -5°C° 0.4 mm 3 mps 724 mmHg 95%
    14:00 -4°C° 1.4 mm 2 mps 723 mmHg 95%
    15:00 -4°C° 1.4 mm 2 mps 723 mmHg 96%
    16:00 -2°C° 1.4 mm 1 mps 722 mmHg 97%
    17:00 -2°C° 1 mm 1 mps 722 mmHg 97%
    18:00 -2°C° 1 mm 1 mps 721 mmHg 97%
    19:00 -3°C° 1 mm 1 mps 721 mmHg 97%
    20:00 -3°C° 0.7 mm 1 mps 721 mmHg 97%
    21:00 -3°C° 0.7 mm 1 mps 721 mmHg 97%
    22:00 -3°C° 0.7 mm 1 mps 721 mmHg 97%
    23:00 -4°C° 0.1 mm 1 mps 721 mmHg 96%

    27 February, Thursday

    Time Temperature Precipitation Wind Pressure Humidity
    00:00 -6°C° 0.1 mm 1 mps 721 mmHg 95%
    01:00 -6°C° 0.1 mm 1 mps 721 mmHg 94%
    02:00 -7°C° 0 mm 2 mps 722 mmHg 92%
    03:00 -7°C° 0 mm 2 mps 722 mmHg 90%
    04:00 -8°C° 0 mm 3 mps 723 mmHg 88%
    05:00 -8°C° 0 mm 3 mps 723 mmHg 88%
    06:00 -8°C° 0 mm 3 mps 723 mmHg 88%
    07:00 -9°C° 0 mm 3 mps 724 mmHg 88%
    08:00 -8°C° 0 mm 3 mps 724 mmHg 87%
    09:00 -7°C° 0 mm 3 mps 725 mmHg 86%
    10:00 -6°C° 0 mm 3 mps 725 mmHg 85%
    11:00 -5°C° 0 mm 3 mps 725 mmHg 84%
    12:00 -4°C° 0 mm 3 mps 726 mmHg 82%
    13:00 -4°C° 0 mm 4 mps 726 mmHg 81%
    14:00 -4°C° 0 mm 3 mps 727 mmHg 82%
    15:00 -4°C° 0 mm 3 mps 727 mmHg 84%
    16:00 -3°C° 0 mm 2 mps 728 mmHg 86%
    17:00 -3°C° 0 mm 2 mps 728 mmHg 88%
    18:00 -4°C° 0 mm 2 mps 729 mmHg 90%
    19:00 -5°C° 0 mm 2 mps 729 mmHg 92%
    20:00 -5°C° 0 mm 2 mps 729 mmHg 92%
    21:00 -4°C° 0 mm 2 mps 730 mmHg 92%
    22:00 -4°C° 0 mm 2 mps 730 mmHg 92%
    23:00 -4°C° 0 mm 2 mps 731 mmHg 93%

    28 February, Friday

    Time Temperature Precipitation Wind Pressure Humidity
    00:00 -4°C° 0 mm 2 mps 731 mmHg 93%
    01:00 -4°C° 0 mm 2 mps 731 mmHg 94%
    02:00 -3°C° 0 mm 2 mps 731 mmHg 95%
    03:00 -3°C° 0 mm 2 mps 731 mmHg 96%
    04:00 -3°C° 0 mm 2 mps 731 mmHg 98%
    05:00 -2°C° 0 mm 2 mps 731 mmHg 96%
    06:00 -2°C° 0 mm 2 mps 731 mmHg 95%
    07:00 -1°C° 0 mm 3 mps 731 mmHg 93%
    08:00 -1°C° 0.1 mm 3 mps 731 mmHg 94%
    09:00 -1°C° 0.1 mm 3 mps 731 mmHg 94%
    10:00 -2°C° 0.1 mm 4 mps 730 mmHg 94%
    11:00 -2°C° 0 mm 4 mps 731 mmHg 96%
    12:00 0°C° 0 mm 3 mps 731 mmHg 98%
    13:00 0°C° 0 mm 3 mps 731 mmHg 99%
    14:00 0°C° 0.1 mm 3 mps 731 mmHg 99%
    15:00 +1°C° 0.1 mm 3 mps 732 mmHg 99%
    16:00 +1°C° 0.1 mm 3 mps 732 mmHg 99%
    17:00 +1°C° 0.1 mm 3 mps 732 mmHg 99%
    18:00 +1°C° 0.1 mm 3 mps 733 mmHg 99%
    19:00 +1°C° 0.1 mm 3 mps 733 mmHg 98%
    20:00 +1°C° 0 mm 3 mps 734 mmHg 98%
    21:00 0°C° 0 mm 4 mps 734 mmHg 98%
    22:00 0°C° 0 mm 4 mps 734 mmHg 97%
    23:00 0°C° 0 mm 4 mps 735 mmHg 96%

    29 February, Saturday

    Time Temperature Precipitation Wind Pressure Humidity
    00:00 -1°C° 0 mm 4 mps 735 mmHg 95%
    01:00 -1°C° 0 mm 4 mps 735 mmHg 94%
    02:00 0°C° 0 mm 3 mps 735 mmHg 94%
    03:00 0°C° 0 mm 3 mps 735 mmHg 93%
    04:00 -1°C° 0 mm 3 mps 735 mmHg 93%
    05:00 -1°C° 0 mm 3 mps 735 mmHg 92%
    06:00 -1°C° 0 mm 3 mps 735 mmHg 91%
    07:00 -1°C° 0 mm 3 mps 735 mmHg 89%
    08:00 -2°C° 0 mm 4 mps 734 mmHg 87%
    09:00 -2°C° 0 mm 4 mps 734 mmHg 84%
    10:00 -2°C° 0 mm 4 mps 734 mmHg 81%
    11:00 -1°C° 0 mm 4 mps 734 mmHg 80%
    12:00 -1°C° 0 mm 4 mps 734 mmHg 80%
    13:00 -1°C° 0 mm 4 mps 733 mmHg 79%
    14:00 -1°C° 0 mm 4 mps 733 mmHg 80%
    15:00 -1°C° 0 mm 4 mps 733 mmHg 81%
    16:00 -1°C° 0 mm 4 mps 733 mmHg 83%
    17:00 -2°C° 0 mm 4 mps 733 mmHg 84%
    18:00 -2°C° 0 mm 4 mps 733 mmHg 85%
    19:00 -2°C° 0 mm 3 mps 733 mmHg 86%
    20:00 -2°C° 0 mm 3 mps 733 mmHg 86%
    21:00 -2°C° 0 mm 3 mps 733 mmHg 86%
    22:00 -4°C° 0 mm 3 mps 733 mmHg 86%
    23:00 -4°C° 0 mm 3 mps 733 mmHg 88%
    Show more